timestamp,wind_dir_avg,wind_spd_avg,wind_spd_max_dir,wind_spd_gust,battery_voltage,lat,long
2019-11-18 00:04:01+00:00,301.0,6.78,299.0,9.04,12.65,47.59359,-54.27349
2019-11-18 00:14:01+00:00,292.0,6.1,292.0,8.17,12.57,47.59359,-54.27349
2019-11-18 00:24:01+00:00,282.0,5.42,289.0,6.61,12.57,47.59359,-54.27349
2019-11-18 00:34:01+00:00,266.0,4.35,266.0,5.4,12.57,47.59359,-54.27349
2019-11-18 00:44:01+00:00,273.0,2.97,269.0,4.08,12.57,47.59359,-54.27349
2019-11-18 00:54:01+00:00,284.0,5.88,287.0,8.5,12.57,47.59359,-54.27349
2019-11-18 01:04:01+00:00,305.0,3.59,312.0,5.51,12.57,47.59359,-54.27349
2019-11-18 01:14:01+00:00,267.0,4.26,276.0,5.61,12.57,47.59359,-54.27349
2019-11-18 01:24:01+00:00,274.0,3.42,282.0,4.32,12.57,47.59359,-54.27349
2019-11-18 01:34:01+00:00,278.0,5.34,280.0,6.86,12.57,47.59359,-54.27349
2019-11-18 01:44:01+00:00,295.0,4.21,296.0,6.57,12.57,47.59359,-54.27349
2019-11-18 01:54:01+00:00,286.0,4.89,289.0,6.13,12.57,47.59359,-54.27349
2019-11-18 02:04:01+00:00,290.0,4.34,283.0,5.49,12.57,47.59359,-54.27349
2019-11-18 02:14:01+00:00,314.0,3.9,316.0,4.88,12.57,47.59359,-54.27349
2019-11-18 02:24:01+00:00,301.0,5.04,298.0,6.47,12.57,47.59359,-54.27349
2019-11-18 02:34:01+00:00,301.0,6.45,307.0,7.26,12.57,47.59359,-54.27349
2019-11-18 02:44:01+00:00,301.0,4.74,309.0,5.46,12.57,47.59359,-54.27349
2019-11-18 02:54:01+00:00,303.0,4.52,307.0,5.78,12.57,47.59359,-54.27349
2019-11-18 03:04:01+00:00,312.0,4.6,319.0,6.77,12.57,47.59359,-54.27349
2019-11-18 03:14:01+00:00,294.0,3.55,306.0,5.44,12.49,47.59359,-54.27349
2019-11-18 03:24:01+00:00,294.0,3.55,293.0,4.58,12.49,47.59359,-54.27349
2019-11-18 03:34:01+00:00,312.0,2.68,319.0,4.08,12.49,47.59359,-54.27349
2019-11-18 03:44:01+00:00,312.0,6.56,311.0,7.54,12.49,47.59359,-54.27349
2019-11-18 03:54:01+00:00,287.0,4.53,279.0,5.77,12.49,47.59359,-54.27349
2019-11-18 04:04:01+00:00,314.0,3.14,319.0,4.67,12.49,47.59359,-54.27349
2019-11-18 04:14:01+00:00,294.0,3.94,293.0,4.54,12.49,47.59359,-54.27349
2019-11-18 04:24:01+00:00,266.0,3.6,280.0,4.52,12.49,47.59359,-54.27349
2019-11-18 04:34:01+00:00,268.0,3.97,273.0,4.61,12.49,47.59359,-54.27349
2019-11-18 04:44:01+00:00,276.0,4.33,271.0,5.06,12.49,47.59359,-54.27349
2019-11-18 04:54:01+00:00,269.0,4.8,273.0,6.25,12.49,47.59359,-54.27349
2019-11-18 05:04:01+00:00,271.0,5.16,282.0,6.54,12.49,47.59359,-54.27349
2019-11-18 05:14:01+00:00,269.0,4.33,264.0,5.13,12.49,47.59359,-54.27349
2019-11-18 05:24:01+00:00,275.0,6.47,279.0,7.61,12.49,47.59359,-54.27349
2019-11-18 05:34:01+00:00,263.0,5.33,266.0,6.51,12.49,47.59359,-54.27349
2019-11-18 05:44:01+00:00,269.0,6.39,266.0,7.33,12.49,47.59359,-54.27349
2019-11-18 05:54:01+00:00,271.0,5.29,273.0,6.86,12.49,47.59359,-54.27349
2019-11-18 06:04:01+00:00,259.0,5.77,259.0,7.19,12.49,47.59359,-54.27349
2019-11-18 06:14:01+00:00,281.0,5.31,275.0,6.68,12.49,47.59359,-54.27349
2019-11-18 06:24:01+00:00,270.0,6.31,270.0,7.0,12.49,47.59359,-54.27349
2019-11-18 06:34:01+00:00,293.0,5.04,297.0,5.75,12.49,47.59359,-54.27349
2019-11-18 06:44:01+00:00,266.0,4.78,265.0,5.41,12.49,47.59359,-54.27349
2019-11-18 06:54:01+00:00,274.0,6.27,271.0,7.45,12.49,47.59359,-54.27349
2019-11-18 07:04:01+00:00,272.0,6.08,269.0,7.44,12.49,47.59359,-54.27349
2019-11-18 07:14:01+00:00,282.0,7.06,277.0,8.06,12.41,47.59359,-54.27349
2019-11-18 07:24:01+00:00,292.0,6.77,294.0,7.5,12.41,47.59359,-54.27349
2019-11-18 07:34:01+00:00,288.0,6.96,288.0,7.43,12.41,47.59359,-54.27349
2019-11-18 07:44:01+00:00,294.0,5.9,292.0,6.68,12.41,47.59359,-54.27349
2019-11-18 07:54:01+00:00,297.0,5.29,304.0,6.1,12.41,47.59359,-54.27349
2019-11-18 08:04:01+00:00,287.0,6.43,283.0,7.27,12.41,47.59359,-54.27349
2019-11-18 08:14:01+00:00,285.0,6.46,282.0,7.12,12.41,47.59359,-54.27349
2019-11-18 08:24:01+00:00,290.0,6.01,285.0,7.04,12.41,47.59359,-54.27349
2019-11-18 08:34:01+00:00,272.0,4.85,271.0,5.9,12.41,47.59359,-54.27349
2019-11-18 08:44:01+00:00,283.0,3.68,289.0,4.4,12.41,47.59359,-54.27349
2019-11-18 08:54:01+00:00,273.0,4.23,272.0,4.99,12.41,47.59359,-54.27349
2019-11-18 09:04:01+00:00,277.0,4.38,272.0,5.09,12.41,47.59359,-54.27349
2019-11-18 09:14:01+00:00,293.0,4.11,286.0,5.22,12.41,47.59359,-54.27349
2019-11-18 09:24:01+00:00,302.0,3.84,304.0,4.45,12.41,47.59359,-54.27349
2019-11-18 09:34:01+00:00,303.0,4.64,308.0,5.94,12.41,47.59359,-54.27349
2019-11-18 09:44:01+00:00,295.0,4.14,290.0,4.89,12.41,47.59359,-54.27349
2019-11-18 09:54:01+00:00,272.0,3.15,268.0,3.89,12.41,47.59359,-54.27349
2019-11-18 10:04:01+00:00,315.0,3.42,320.0,4.33,12.41,47.59359,-54.27349
2019-11-18 10:14:01+00:00,300.0,3.0,308.0,3.75,12.41,47.59359,-54.27349
2019-11-18 10:24:01+00:00,298.0,3.72,286.0,4.95,12.41,47.59359,-54.27349
2019-11-18 10:34:01+00:00,300.0,5.2,304.0,5.84,12.41,47.59359,-54.27349
2019-11-18 10:44:01+00:00,289.0,5.93,289.0,7.04,12.41,47.59359,-54.27349
2019-11-18 10:54:01+00:00,299.0,6.64,296.0,7.44,12.41,47.59359,-54.27349
2019-11-18 11:04:01+00:00,299.0,7.35,298.0,7.96,12.41,47.59359,-54.27349
2019-11-18 11:14:01+00:00,309.0,6.0,306.0,6.95,12.49,47.59359,-54.27349
2019-11-18 11:24:01+00:00,307.0,6.34,308.0,7.28,12.49,47.59359,-54.27349
2019-11-18 11:34:01+00:00,306.0,5.95,308.0,6.96,12.49,47.59359,-54.27349
2019-11-18 11:44:01+00:00,315.0,6.21,321.0,7.69,12.49,47.59359,-54.27349
2019-11-18 11:54:01+00:00,309.0,6.68,308.0,7.44,12.49,47.59359,-54.27349
2019-11-18 12:04:01+00:00,317.0,7.04,319.0,7.99,12.49,47.59359,-54.27349
2019-11-18 12:14:01+00:00,319.0,8.24,317.0,9.06,14.32,47.59359,-54.27349
2019-11-18 12:24:01+00:00,324.0,6.77,323.0,7.95,14.32,47.59359,-54.27349
2019-11-18 12:34:01+00:00,315.0,7.37,320.0,8.12,14.32,47.59359,-54.27349
2019-11-18 12:44:01+00:00,326.0,6.19,324.0,7.05,14.32,47.59359,-54.27349
2019-11-18 12:54:01+00:00,324.0,6.76,323.0,7.53,14.32,47.59359,-54.27349
2019-11-18 13:04:01+00:00,317.0,4.76,311.0,5.96,14.32,47.59359,-54.27349
2019-11-18 13:14:01+00:00,341.0,2.77,331.0,3.51,13.76,47.59359,-54.27349
2019-11-18 13:24:01+00:00,2.0,2.66,11.0,3.83,13.76,47.59359,-54.27349
2019-11-18 13:34:01+00:00,322.0,0.72,314.0,1.16,13.76,47.59359,-54.27349
2019-11-18 13:44:01+00:00,338.0,2.09,333.0,2.84,13.76,47.59359,-54.27349
2019-11-18 13:54:01+00:00,359.0,1.86,1.0,2.41,13.76,47.59359,-54.27349
2019-11-18 14:04:01+00:00,81.0,1.25,86.0,1.7,13.76,47.59359,-54.27349
2019-11-18 14:14:01+00:00,47.0,1.4,43.0,1.81,13.68,47.59359,-54.27349
2019-11-18 14:24:01+00:00,34.0,0.76,42.0,1.16,13.68,47.59359,-54.27349
2019-11-18 14:34:01+00:00,263.0,0.38,237.0,0.82,13.68,47.59359,-54.27349
2019-11-18 14:44:01+00:00,266.0,0.32,246.0,0.91,13.68,47.59359,-54.27349
2019-11-18 14:54:01+00:00,239.0,0.4,255.0,0.83,13.68,47.59359,-54.27349
2019-11-18 15:04:01+00:00,266.0,1.0,270.0,1.43,13.68,47.59359,-54.27349
2019-11-18 15:14:01+00:00,235.0,2.94,234.0,3.43,13.76,47.59359,-54.27349
2019-11-18 15:24:01+00:00,266.0,2.04,269.0,2.95,13.76,47.59359,-54.27349
2019-11-18 15:34:01+00:00,261.0,1.93,262.0,2.43,13.76,47.59359,-54.27349
2019-11-18 15:44:01+00:00,234.0,1.08,222.0,1.7,13.76,47.59359,-54.27349
2019-11-18 15:54:01+00:00,176.0,1.04,192.0,1.63,13.76,47.59359,-54.27349
2019-11-18 16:04:01+00:00,181.0,2.23,181.0,2.66,13.76,47.59359,-54.27349
2019-11-18 16:14:01+00:00,188.0,2.29,190.0,2.82,14.32,47.59359,-54.27349
2019-11-18 16:24:01+00:00,192.0,1.75,198.0,2.22,14.32,47.59359,-54.27349
2019-11-18 16:34:01+00:00,216.0,2.79,218.0,3.25,14.32,47.59359,-54.27349
2019-11-18 16:44:01+00:00,233.0,2.78,231.0,3.34,14.32,47.59359,-54.27349
2019-11-18 16:54:01+00:00,237.0,2.17,236.0,2.77,14.32,47.59359,-54.27349
2019-11-18 17:04:01+00:00,264.0,2.06,266.0,2.61,14.32,47.59359,-54.27349
2019-11-18 17:14:01+00:00,230.0,2.93,230.0,3.37,13.92,47.59359,-54.27349
2019-11-18 17:24:01+00:00,220.0,3.37,221.0,3.86,13.92,47.59359,-54.27349
2019-11-18 17:34:01+00:00,235.0,3.33,237.0,3.76,13.92,47.59359,-54.27349
2019-11-18 17:44:01+00:00,227.0,3.68,226.0,3.99,13.92,47.59359,-54.27349
2019-11-18 17:54:01+00:00,227.0,3.54,227.0,3.91,13.92,47.59359,-54.27349
2019-11-18 18:04:01+00:00,219.0,3.43,222.0,4.1,13.92,47.59359,-54.27349
2019-11-18 18:14:01+00:00,216.0,2.08,217.0,2.31,13.84,47.59359,-54.27349
2019-11-18 18:24:01+00:00,214.0,1.77,223.0,2.26,13.84,47.59359,-54.27349
2019-11-18 18:34:01+00:00,229.0,1.6,240.0,1.92,13.84,47.59359,-54.27349
2019-11-18 18:44:01+00:00,230.0,0.64,249.0,0.83,13.84,47.59359,-54.27349
2019-11-18 18:54:01+00:00,193.0,1.88,192.0,2.32,13.84,47.59359,-54.27349
2019-11-18 19:04:01+00:00,212.0,1.52,198.0,1.94,13.84,47.59359,-54.27349
2019-11-18 19:14:01+00:00,192.0,2.61,191.0,3.05,13.6,47.59359,-54.27349
2019-11-18 19:24:01+00:00,197.0,2.69,198.0,2.93,13.6,47.59359,-54.27349
2019-11-18 19:34:01+00:00,195.0,3.34,198.0,3.74,13.6,47.59359,-54.27349
2019-11-18 19:44:01+00:00,221.0,2.74,222.0,3.03,13.6,47.59359,-54.27349
2019-11-18 19:54:01+00:00,225.0,3.04,223.0,3.46,13.6,47.59359,-54.27349
2019-11-18 20:04:01+00:00,216.0,2.95,217.0,3.59,13.6,47.59359,-54.27349
2019-11-18 20:14:01+00:00,227.0,3.24,221.0,3.77,12.89,47.59359,-54.27349
2019-11-18 20:24:01+00:00,216.0,3.75,219.0,4.28,12.89,47.59359,-54.27349
2019-11-18 20:34:01+00:00,223.0,3.53,230.0,3.84,12.89,47.59359,-54.27349
2019-11-18 20:44:01+00:00,236.0,3.25,242.0,3.71,12.89,47.59359,-54.27349
2019-11-18 20:54:01+00:00,232.0,2.93,237.0,3.69,12.89,47.59359,-54.27349
2019-11-18 21:04:01+00:00,230.0,3.29,234.0,3.63,12.89,47.59359,-54.27349
2019-11-18 21:14:01+00:00,243.0,3.63,236.0,4.16,12.73,47.59359,-54.27349
2019-11-18 21:24:01+00:00,223.0,3.14,225.0,3.48,12.73,47.59359,-54.27349
2019-11-18 21:34:01+00:00,216.0,2.8,220.0,3.18,12.73,47.59359,-54.27349
2019-11-18 21:44:01+00:00,246.0,1.78,247.0,2.19,12.73,47.59359,-54.27349
2019-11-18 21:54:01+00:00,228.0,1.63,229.0,1.95,12.73,47.59359,-54.27349
2019-11-18 22:04:01+00:00,241.0,1.0,248.0,1.34,12.73,47.59359,-54.27349
2019-11-18 22:14:01+00:00,270.0,0.59,261.0,0.77,12.65,47.59359,-54.27349
2019-11-18 22:24:01+00:00,263.0,0.63,268.0,0.81,12.65,47.59359,-54.27349
2019-11-18 22:34:01+00:00,109.0,0.59,106.0,0.94,12.65,47.59359,-54.27349
2019-11-18 22:44:01+00:00,65.0,0.89,57.0,1.02,12.65,47.59359,-54.27349
2019-11-18 22:54:01+00:00,37.0,1.6,35.0,1.94,12.65,47.59359,-54.27349
2019-11-18 23:04:01+00:00,44.0,2.38,38.0,3.01,12.65,47.59359,-54.27349
2019-11-18 23:14:01+00:00,52.0,2.28,52.0,2.61,12.65,47.59359,-54.27349
2019-11-18 23:24:01+00:00,48.0,2.04,41.0,2.37,12.65,47.59359,-54.27349
2019-11-18 23:34:01+00:00,106.0,2.01,112.0,2.88,12.65,47.59359,-54.27349
2019-11-18 23:44:01+00:00,96.0,2.43,88.0,2.96,12.65,47.59359,-54.27349
2019-11-18 23:54:01+00:00,98.0,2.57,101.0,3.42,12.65,47.59359,-54.27349
